Weather in Azamat-Yurt

Russia / Chechen Republic     43°25′07″N   46°17′09″E
В апреле 2022 года жителям России запретили посещать сайт meteo.paraplan.net по решению Генеральной прокуратуры. Аудитория сайта уменьшилась в 10 раз. Владельцы сайта не видят смысла в поддержке погодного сервера в таких условиях. Сайт будет закрыт в октябре.
temp.,
°C
wind,
m/s
gust,
m/s
humid.,
%
clouds,
%
prec.,
mm/h
press.,
hPa
HPBL,
m
4 october, tue
tue400:00+16nw1271100 0.0 101415
03:00+16ne117297 0.0 101515
06:00+17e116779 0.0 101440
09:00+21ene345978 0.0 1014670
12:00+27e454512 0.0 10121330
15:00+26e654596 0.0 10131168
18:00+20ene487116 0.0 1016236
21:00+17ene238236 0.0 101750
5 october, wed
wed500:00+16nw11875 0.0 101814
03:00+16nw2288100 0.0 101814
06:00+16nnw1189100 0.0 101813
09:00+21n116298 0.0 1018477
12:00+26nw4443100 0.0 10181279
15:00+26wnw6739100 0.0 10191810
18:00+22nw81156100 0.0 1022655
21:00+20w5768100 0.0 1023653
6 october, thu
thu600:00+19wnw4568100 0.0 1024602
03:00+18nw3467100 0.0 1023471
06:00+18nnw2468100 0.0 1023474
09:00+17n3367100 0.0 1023612
12:00+17nnw4466100 0.1 1023738
15:00+17n3459100 0.1 1023824
18:00+15nnw4572100 0.1 1026449
21:00+13n2386100 0.5 1027282
7 october, fri
fri700:00+13n1184100 0.0 1027234
03:00+12ene118979 0.1 102636
06:00+13e1285100 0.0 1026131
09:00+15ene2374100 0.0 1027495
12:00+20ene445291 0.0 10251309
15:00+20ese5651100 0.0 10241321
18:00+17ese5861100 0.0 1025544
21:00+16e596598 0.0 1025625
8 october, sat
sat800:00+16e51065100 0.0 1025676
03:00+17e61165100 0.0 1024886
06:00+17e81265100 0.0 10241030
09:00+18e9136077 0.0 10231133
12:00+20e11145598 0.0 10211408
15:00+20e11135354 0.0 10191313
18:00+17e1015645 0.0 1019945
21:00+17ese9156873 0.0 1019837